[[{"header":{"parameterUnit":"m.s-1","parameterCategory":1,"la1":30.2991,"la2":30.254,"lo1":-89.0895,"lo2":-89.0444,"dy":0.0017,"dx":0.0017,"nx":28,"ny":28,"refTime":"2025-04-02T09:00:00:Z","depth":0,"parameterNumber":2,"parameterNumberName":"U-component_of_WINDS"},"data":[0,0,0,0,0,0,0,0,0,0,0,0,0,0,0,0,0,0,0,0,0,0,0,0,0,0,0,0,0,0,0,0,0,0,0,0,0,0,0,0,0,0,0,0,0,0,0,0,0,0,0,0,0,0,0,0,0,0,-6.5442,-6.5444,0,-6.5573,-6.5575,-6.5576,-6.5558,-6.5556,-6.5554,-6.5552,-6.5681,-6.5686,-6.5692,0,0,0,0,0,0,0,0,0,0,0,0,0,-6.5173,-6.5178,-6.5442,-6.5444,-6.5445,-6.5573,-6.5575,-6.5576,-6.5559,-6.5556,-6.5554,-6.5551,-6.5679,-6.5686,-6.5692,0,0,0,0,0,0,0,0,0,0,0,0,0,-6.5295,-6.518,-6.5442,-6.5452,-6.5454,-6.5573,-6.5575,-6.5577,-6.5559,-6.5556,-6.5553,-6.555,-6.5677,-6.5685,-6.5693,-6.5808,0,0,-6.5718,-6.5722,0,0,0,0,0,0,0,0,-6.5289,-6.5305,-6.5449,-6.5452,-6.5454,-6.5546,-6.5527,-6.5654,-6.556,-6.5519,-6.5552,-6.5548,-6.5639,-6.565,-6.5681,-6.5814,-6.582,-6.5719,-6.5724,-6.5727,-6.573,0,0,0,0,0,0,0,-6.528,-6.53,-6.5494,-6.5451,-6.5454,-6.5449,-6.5463,-6.5551,-6.5595,-6.5523,-6.5522,-6.5538,-6.5639,-6.5673,-6.5684,-6.5822,-6.5719,-6.5726,-6.5731,-6.5734,-6.6055,-6.6059,0,0,0,0,0,0,-6.527,-6.5293,-6.549,-6.5498,-6.5362,-6.5456,-6.5472,-6.552,-6.5594,-6.5603,-6.554,-6.5536,-6.5661,-6.5675,-6.5688,-6.5827,-6.5727,-6.5735,-6.574,-6.6052,-6.6056,-6.606,0,0,0,0,0,0,-6.5264,-6.5287,-6.5484,-6.5395,-6.542,-6.5465,-6.5519,-6.5524,-6.5558,-6.5608,-6.5615,-6.5567,-6.5659,-6.5677,-6.5779,-6.5831,-6.5739,-6.5746,-6.6047,-6.6053,-6.6058,-6.6105,0,0,0,0,0,0,-6.5256,-6.5285,-6.533,-6.5396,-6.5425,-6.5573,-6.5522,-6.5529,-6.5573,-6.5569,-6.5635,-6.5642,-6.5658,-6.5767,-6.5787,-6.5841,-6.5752,-6.6043,-6.605,-6.6056,-6.6099,-6.6111,-6.6122,0,0,0,0,0,-6.5247,-6.5337,-6.5332,-6.5356,-6.5482,-6.5576,-6.5593,-6.561,-6.5577,-6.5622,-6.5654,-6.564,-6.5823,-6.5777,-6.58,-6.5857,-6.6039,-6.6048,-6.6056,-6.6093,-6.6109,-6.6122,0,0,0,0,0,0,-6.5273,-6.5346,-6.5341,-6.5456,-6.5511,-6.5573,-6.563,-6.5625,-6.5689,-6.5682,-6.57,-6.5715,-6.5817,-6.5848,-6.5795,-6.5972,-6.5927,-6.594,-6.5948,-6.5962,-6.5974,-6.5963,-6.5759,0,0,0,0,0,-6.5293,-6.5365,-6.5424,-6.552,-6.5548,-6.5585,-6.5626,-6.5636,-6.5692,-6.5714,-6.5753,-6.5807,-6.5877,-6.5922,-6.5989,-6.6105,-6.6118,-6.6155,-6.6167,-6.6176,-6.6186,-6.6248,-6.6265,-6.6087,-6.6087,-6.6087,0,0,-6.5333,-6.5382,-6.5426,-6.5526,-6.557,-6.5643,-6.5604,-6.5683,-6.5736,-6.5725,-6.5824,-6.5855,-6.5917,-6.6026,-6.6076,-6.6054,-6.6239,-6.6186,-6.6193,-6.6198,-6.6259,-6.6275,-6.629,-6.6092,-6.6091,-6.609,0,0,-6.5443,-6.5489,-6.5573,-6.5618,-6.5685,-6.5709,-6.5729,-6.5794,-6.5815,-6.5915,-6.5908,-6.5972,-6.6092,-6.6136,-6.6174,-6.6304,-6.6293,-6.6325,-6.6384,-6.6445,-6.6459,-6.6472,-6.6516,-6.6532,-6.6336,-6.6336,-6.6336,0,-6.5484,-6.5595,-6.5616,-6.5697,-6.574,-6.5737,-6.5821,-6.5864,-6.5948,-6.5978,-6.5954,-6.6104,-6.6146,-6.6264,-6.6296,-6.6328,-6.6351,-6.6316,-6.6456,-6.6469,-6.648,-6.6523,-6.654,-6.6339,-6.6339,-6.6339,-6.6338,0,-6.5641,-6.5719,-6.5779,-6.5863,-6.5914,-6.5996,-6.6028,-6.6077,-6.6083,-6.6109,-6.6211,-6.6261,-6.6338,-6.6367,-6.6373,-6.6488,-6.6472,-6.6452,-6.6406,-6.65,-6.654,-6.6557,-6.6344,-6.6343,-6.6342,-6.6341,0,0,-6.5768,-6.5865,-6.5886,-6.5924,-6.5999,-6.6058,-6.6141,-6.6218,-6.6259,-6.6318,-6.6386,-6.6489,-6.6472,-6.6515,-6.6526,-6.658,-6.6678,-6.6553,-6.6555,-6.6572,-6.6805,-6.6817,-6.6836,-6.6673,-6.6676,-6.6679,-6.6799,0,-6.5883,-6.603,-6.6052,-6.618,-6.6251,-6.625,-6.6322,-6.6375,-6.6403,-6.6467,-6.6497,-6.6569,-6.6542,-6.6568,-6.6621,-6.6654,-6.6724,-6.6647,-6.6734,-6.6737,-6.6715,-6.6857,-6.687,-6.6981,-6.6815,-6.6818,-6.682,0,-6.6036,-6.6102,-6.6238,-6.6304,-6.6334,-6.6398,-6.6471,-6.6533,-6.6593,-6.661,-6.666,-6.6665,-6.6749,-6.6703,-6.6818,-6.6764,-6.6802,-6.6824,-6.6829,-6.6835,-6.6781,-6.6864,-6.7017,-6.7032,-6.6845,-6.6843,-6.6841,0,-6.6112,-6.6235,-6.6331,-6.6364,-6.6445,-6.6489,-6.6524,-6.6582,-6.6627,-6.6691,-6.672,-6.6793,-6.6831,-6.6887,-6.6911,-6.6875,-6.7024,-6.698,-6.7038,-6.7037,-6.7066,-6.7063,-6.7224,-6.7096,-6.7096,-6.7095,-6.7095,0,-6.6237,-6.6319,-6.6367,-6.6426,-6.6518,-6.6543,-6.6634,-6.6667,-6.6719,-6.6784,-6.6789,-6.6849,-6.6879,-6.6944,-6.6964,-6.7055,-6.7073,-6.7087,-6.7091,-6.7085,-6.7083,-6.7107,-6.7099,-6.71,-6.7099,-6.7098,-6.7097,0,-6.6335,-6.637,-6.6475,-6.6544,-6.6563,-6.6628,-6.6686,-6.6743,-6.6772,-6.6854,-6.6875,-6.692,-6.6997,-6.7028,-6.7121,-6.7135,-6.7239,-6.7238,-6.7219,-6.7219,-6.7274,-6.7267,-6.7454,-6.7478,-6.7337,-6.7338,-6.7339,0,-6.641,-6.6474,-6.655,-6.6595,-6.6632,-6.6704,-6.675,-6.6779,-6.6827,-6.6902,-6.6949,-6.7027,-6.709,-6.7213,-6.7252,-6.7324,-6.7323,-6.7384,-6.7333,-6.7326,-6.7321,-6.7315,-6.7321,-6.7391,-6.7393,-6.7394,-6.7395,0,-6.6539,-6.6554,-6.6622,-6.6697,-6.6754,-6.6813,-6.6872,-6.6908,-6.6945,-6.6999,-6.7078,-6.7128,-6.7225,-6.73,-6.7375,-6.741,-6.7408,-6.7411,-6.7428,-6.7421,-6.7406,-6.7412,-6.724,-6.7406,-6.7405,-6.7404,-6.7403,-6.7403,-6.6626,-6.6683,-6.6745,-6.6821,-6.6869,-6.6924,-6.6981,-6.7018,-6.7086,-6.7167,-6.718,-6.7265,-6.7325,-6.7425,-6.7463,-6.7529,-6.7513,-6.7538,-6.7544,-6.7549,-6.7551,-6.7399,-6.7543,-6.7543,-6.7543,-6.7543,-6.7542,0,-6.6753,-6.6795,-6.6864,-6.6947,-6.7006,-6.7003,-6.7068,-6.7117,-6.7192,-6.7249,-6.7312,-6.7404,-6.7478,-6.7526,-6.76,-6.7644,-6.7645,-6.7662,-6.7657,-6.7665,-6.7562,-6.7539,-6.766,-6.766,-6.766,-6.766,-6.766,-6.766,-6.6826,-6.6921,-6.6944,-6.7063,-6.7103,-6.7187,-6.7224,-6.7275,-6.732,-6.7423,-6.7485,-6.7517,-6.757,-6.7649,-6.7717,-6.7729,-6.7755,-6.7773,-6.7783,-6.7685,-6.7673,-6.7661,-6.7639,-6.7779,-6.7779,-6.788,-6.7881,-6.7882]},{"header":{"parameterUnit":"m.s-1","parameterCategory":1,"la1":30.2991,"la2":30.254,"lo1":-89.0895,"lo2":-89.0444,"dy":0.0017,"dx":0.0017,"nx":28,"ny":28,"refTime":"2025-04-02T09:00:00:Z","depth":0,"parameterNumber":3,"parameterNumberName":"V-component_of_WINDS"},"data":[0,0,0,0,0,0,0,0,0,0,0,0,0,0,0,0,0,0,0,0,0,0,0,0,0,0,0,0,0,0,0,0,0,0,0,0,0,0,0,0,0,0,0,0,0,0,0,0,0,0,0,0,0,0,0,0,0,0,4.817,4.8171,0,4.8294,4.8295,4.8297,4.8305,4.8303,4.8302,4.83,4.8422,4.8426,4.843,0,0,0,0,0,0,0,0,0,0,0,0,0,4.7936,4.794,4.817,4.8171,4.8173,4.8294,4.8295,4.8297,4.8305,4.8303,4.8301,4.83,4.842,4.8425,4.8431,0,0,0,0,0,0,0,0,0,0,0,0,0,4.8046,4.7942,4.817,4.8191,4.8195,4.8293,4.8296,4.8298,4.8305,4.8303,4.8301,4.8299,4.8418,4.8425,4.8432,4.8515,0,0,4.8452,4.8455,0,0,0,0,0,0,0,0,4.804,4.8055,4.8187,4.819,4.8194,4.8282,4.8257,4.837,4.8306,4.8263,4.83,4.8298,4.8376,4.8386,4.8414,4.8521,4.8526,4.8453,4.8457,4.846,4.8462,0,0,0,0,0,0,0,4.8033,4.805,4.8219,4.8189,4.8193,4.8194,4.8207,4.8279,4.833,4.8267,4.8267,4.8282,4.8378,4.8408,4.8417,4.8528,4.8453,4.8459,4.8463,4.8466,4.8712,4.8715,0,0,0,0,0,0,4.8021,4.8043,4.8215,4.8222,4.8111,4.82,4.8215,4.8256,4.8329,4.8338,4.8284,4.8282,4.8397,4.8409,4.8421,4.8526,4.846,4.8466,4.847,4.871,4.8713,4.8716,0,0,0,0,0,0,4.8016,4.8037,4.821,4.8133,4.8155,4.8206,4.8252,4.8259,4.8289,4.8342,4.8351,4.8305,4.8396,4.8412,4.8493,4.853,4.8469,4.8475,4.8707,4.8711,4.8714,4.8735,0,0,0,0,0,0,4.801,4.8035,4.8068,4.8134,4.816,4.828,4.8254,4.8263,4.8301,4.83,4.8364,4.8373,4.8395,4.8483,4.85,4.8539,4.8481,4.8704,4.8709,4.8713,4.8732,4.8739,4.8746,0,0,0,0,0,4.8001,4.8066,4.8069,4.809,4.8202,4.8282,4.8297,4.8323,4.8304,4.8338,4.8372,4.8371,4.8524,4.8491,4.851,4.8552,4.8701,4.8707,4.8713,4.8728,4.8738,4.8746,0,0,0,0,0,0,4.8,4.8075,4.8079,4.8168,4.8219,4.8284,4.8326,4.8332,4.8388,4.8384,4.8412,4.8427,4.8508,4.8537,4.85,4.8638,4.861,4.862,4.8616,4.8625,4.8632,4.8624,4.8486,0,0,0,0,0,4.8011,4.8071,4.8133,4.8206,4.8232,4.8275,4.831,4.8327,4.838,4.8401,4.8441,4.8492,4.8551,4.859,4.8647,4.8736,4.8751,4.8774,4.8781,4.8787,4.8795,4.8847,4.8859,4.8734,4.8734,4.8734,0,0,4.8032,4.8081,4.8117,4.8207,4.8248,4.831,4.8292,4.8357,4.8404,4.841,4.8491,4.8522,4.858,4.8666,4.8706,4.8694,4.8833,4.8794,4.8798,4.8804,4.8854,4.8866,4.8876,4.8738,4.8737,4.8736,0,0,4.8103,4.8146,4.8213,4.8256,4.832,4.8349,4.8365,4.8429,4.8452,4.8533,4.8541,4.8595,4.8696,4.8738,4.8773,4.8864,4.8866,4.8882,4.892,4.897,4.898,4.8989,4.9023,4.9035,4.889,4.889,4.889,0,4.8121,4.8216,4.8245,4.8312,4.8352,4.8364,4.8432,4.8471,4.855,4.8577,4.8563,4.8693,4.8732,4.883,4.8853,4.888,4.8899,4.8875,4.8976,4.8986,4.8994,4.9028,4.904,4.8891,4.8891,4.8891,4.8891,0,4.8236,4.8302,4.8348,4.8428,4.8473,4.8539,4.8578,4.862,4.8633,4.8664,4.8748,4.8796,4.8865,4.8889,4.8901,4.899,4.898,4.8971,4.8944,4.9008,4.9039,4.9052,4.8894,4.8893,4.8893,4.8892,0,0,4.8308,4.8407,4.8423,4.8461,4.8534,4.8585,4.8652,4.8723,4.8759,4.8813,4.8871,4.8959,4.8952,4.8991,4.9008,4.9052,4.9124,4.9037,4.9039,4.9053,4.9227,4.9235,4.9249,4.9126,4.9128,4.913,4.9223,0,4.8389,4.8513,4.8543,4.8648,4.871,4.8724,4.8783,4.8834,4.8865,4.8921,4.8954,4.9017,4.9001,4.9026,4.907,4.9106,4.9159,4.9099,4.918,4.9182,4.9166,4.9266,4.9273,4.9359,4.9235,4.9237,4.9239,0,4.85,4.8561,4.8673,4.8742,4.8769,4.8822,4.889,4.8944,4.9003,4.9022,4.9068,4.9081,4.9152,4.9122,4.9221,4.9179,4.9214,4.9237,4.9241,4.925,4.9215,4.9279,4.9386,4.94,4.9258,4.9257,4.9255,0,4.8544,4.8654,4.8736,4.8768,4.8849,4.8886,4.8921,4.8978,4.902,4.9079,4.9106,4.9172,4.9208,4.9258,4.9289,4.9264,4.9386,4.9358,4.9405,4.9404,4.943,4.9428,4.9546,4.945,4.945,4.945,4.945,0,4.8632,4.8701,4.8758,4.8808,4.8886,4.892,4.8995,4.903,4.9082,4.9139,4.9153,4.9207,4.9244,4.9302,4.9326,4.9406,4.9421,4.9439,4.9445,4.9439,4.9437,4.9463,4.9458,4.9453,4.9453,4.9452,4.9451,0,4.8695,4.8736,4.8827,4.8898,4.8917,4.8972,4.9032,4.9081,4.9113,4.9186,4.9205,4.9255,4.9325,4.9361,4.9447,4.9463,4.9554,4.9555,4.9535,4.9538,4.9584,4.9579,4.9723,4.9745,4.9633,4.9634,4.9634,0,4.8749,4.8803,4.8881,4.8922,4.8959,4.9024,4.9068,4.9103,4.9147,4.922,4.9261,4.9333,4.9392,4.9503,4.9546,4.9613,4.9617,4.9663,4.9627,4.962,4.962,4.9617,4.9624,4.9669,4.967,4.9671,4.9672,0,4.8841,4.886,4.8923,4.8995,4.9048,4.9105,4.9161,4.9193,4.9237,4.9287,4.936,4.9407,4.9497,4.9568,4.9639,4.9674,4.9681,4.9683,4.9698,4.9693,4.968,4.969,4.9554,4.968,4.9679,4.9678,4.9678,4.9677,4.8903,4.8953,4.9017,4.9088,4.9135,4.9188,4.9239,4.9279,4.9342,4.942,4.9436,4.9515,4.9574,4.967,4.9708,4.9769,4.9759,4.978,4.9785,4.9791,4.9794,4.9669,4.9781,4.9781,4.9781,4.9781,4.9781,0,4.8998,4.9041,4.9106,4.9187,4.9243,4.9247,4.931,4.9356,4.9426,4.9482,4.9541,4.9626,4.9696,4.9746,4.9817,4.9857,4.9862,4.9875,4.9873,4.9881,4.9797,4.9779,4.9869,4.9869,4.9869,4.9869,4.9869,4.9869,4.9055,4.914,4.9167,4.9276,4.9318,4.9397,4.9433,4.9482,4.9528,4.9623,4.9683,4.9716,4.977,4.9845,4.991,4.9923,4.9949,4.9962,4.9975,4.9896,4.9886,4.9878,4.986,4.9967,4.9967,5.0053,5.0054,5.0055]}]]